Location: *
(51.0333°S, 178.4667°E)
Time: 02:27:29
(UTC+00:00)

SPOT 3 Rocket - Pass Details

Date: 15 November 2019
Orbit: 778 x 795 km, 98.8° (Epoch: 15 December)

Event Time Altitude Azimuth Distance (km) Brightness Sun altitude
Rises 08:21:37 0° 160° (SSE) 3,315 7.1 -6.8°
Reaches altitude 10° 08:24:07 10° 151° (SSE) 2,381 6.2 -7.1°
Maximum altitude 08:29:00 38° 83° (E) 1,209 4.2 -7.7°
Drops below altitude 10° 08:33:51 10° 15° (NNE) 2,363 5.5 -8.3°
Enters shadow 08:35:21 - 9° (N) 2,915 6.0 -8.4°
